Temp
17 17 16 16 16 15 15 15 15 15 14 14 14 14 14 13 13 13 13 13 13 13 13 13 13 13 12 12 12 13 13 13 13 13 14 14 14 14 14 14 13 13 13 13 13 13 13 13 13 13 13 13 13 13 13 13 14 14 14 15 14 14 13 14 14 15 15 15 15 16 17 18 18 18 18 18 18 18 18 18 18 19 19 19 20
16 16 16 16 16 15 15 15 15 14 14 14 14 14 14 13 13 13 13 13 13 13 13 13 13 13 13 12 12 13 13 13 13 13 13 13 13 13 13 13 13 12 12 12 12 12 12 12 12 13 13 13 12 13 13 13 13 14 14 14 14 14 14 14 14 14 15 15 15 16 17 17 18 18 18 18 18 18 18 18 18 18 18 19 19
16 16 16 16 15 15 15 15 15 14 14 14 14 14 14 13 13 13 13 13 13 13 13 12 12 13 13 13 12 13 13 13 13 13 13 13 13 13 13 13 12 12 12 12 11 12 12 12 12 12 12 12 12 12 12 13 13 13 14 14 14 14 14 14 14 14 14 15 15 15 16 17 17 17 18 18 18 18 18 18 18 18 18 18 18
16 16 16 15 15 15 15 15 15 14 14 14 14 14 14 13 13 13 13 13 13 13 13 12 12 12 13 13 12 12 13 13 13 13 13 13 13 13 12 12 12 12 11 11 11 11 11 11 11 11 11 11 12 12 12 12 12 13 13 14 14 14 14 14 14 14 14 15 14 14 15 16 16 17 18 18 18 18 18 18 18 18 18 17 18
16 16 16 15 15 15 15 14 14 14 14 14 14 14 14 13 13 13 13 13 13 13 13 12 12 12 12 12 12 12 13 13 13 13 13 12 12 12 12 12 11 11 11 11 11 11 11 10 10 10 10 11 11 11 12 12 12 12 13 13 14 14 14 14 15 14 14 14 14 14 15 16 16 16 17 18 18 18 18 18 18 18 18 17 17
16 16 16 16 15 15 15 15 14 14 14 14 14 14 14 13 13 13 13 13 13 13 13 12 12 12 12 12 12 12 12 13 13 12 12 12 12 12 12 11 11 11 11 11 11 10 10 10 10 10 10 10 11 11 11 12 12 12 12 13 14 14 14 14 14 14 14 14 13 14 14 15 15 16 16 17 17 18 18 18 18 18 18 18 17
16 16 15 15 15 15 15 15 15 14 14 14 14 14 14 14 13 13 13 13 13 13 13 12 12 12 12 12 12 13 12 12 12 12 12 12 12 12 12 11 11 11 11 11 10 10 10 10 10 10 10 10 11 11 11 12 12 12 12 13 13 14 14 14 14 14 14 14 13 13 13 14 14 15 15 16 16 16 16 17 17 17 17 17 17
16 15 15 15 15 15 15 15 15 14 14 14 14 14 14 14 14 13 13 13 13 13 13 13 12 12 12 12 12 12 13 12 12 12 12 12 12 12 12 11 11 11 11 10 10 10 10 10 10 10 10 11 11 11 11 11 12 12 12 13 13 14 14 14 14 14 14 13 13 13 13 13 13 14 14 15 15 15 14 14 14 15 16 16 16
16 16 15 15 15 15 15 15 15 15 14 14 14 14 14 14 14 13 13 13 13 13 13 13 13 12 12 12 12 12 12 12 12 12 12 12 12 12 11 11 11 11 11 11 10 10 10 10 10 10 10 11 11 11 11 11 12 12 12 13 13 13 13 13 13 13 13 13 13 13 13 13 13 13 13 13 13 13 13 13 13 14 15 16 16
16 16 16 15 15 15 15 15 15 15 14 14 14 14 14 14 14 14 14 13 13 13 13 13 13 13 13 13 13 13 12 12 12 12 12 12 12 12 11 11 11 11 11 11 10 11 11 11 11 11 11 11 11 11 11 12 12 12 12 12 12 12 13 13 13 13 13 13 12 12 13 13 13 13 12 12 12 13 13 13 13 13 14 15 16
16 16 16 15 15 15 15 15 15 15 14 14 14 14 14 14 14 14 14 14 14 14 13 13 13 13 13 13 13 13 12 12 12 12 12 12 12 12 11 11 11 11 11 11 10 10 10 11 11 11 11 11 11 11 12 12 12 12 12 12 12 12 12 12 12 13 13 13 12 12 12 13 13 12 12 12 13 13 13 13 13 13 14 15 15
16 16 16 15 15 15 15 15 15 15 14 14 14 14 14 14 14 14 14 14 14 14 14 13 13 13 13 13 13 13 13 13 12 12 12 12 12 11 11 11 11 11 11 11 10 10 10 10 11 11 11 11 11 11 12 12 12 12 12 12 12 12 12 12 12 13 13 13 13 12 12 13 13 12 12 12 13 13 13 13 12 13 13 14 14
16 15 15 15 15 15 15 15 15 14 14 14 14 14 14 14 14 14 14 14 14 14 14 14 13 13 13 13 13 13 13 13 13 12 12 12 12 11 11 11 11 11 11 11 11 10 10 10 10 11 11 11 11 11 11 12 12 12 12 12 12 12 12 12 12 12 12 13 13 12 12 13 13 12 12 13 13 13 13 13 12 12 13 13 13
15 15 15 15 15 15 15 15 15 15 14 14 14 14 14 14 14 14 14 14 14 14 14 14 14 13 13 13 13 13 13 13 12 12 12 12 12 11 11 11 11 11 11 11 11 10 10 10 10 11 11 11 11 11 11 11 12 12 12 12 12 12 12 12 12 12 12 13 13 12 12 12 12 12 12 13 13 13 12 12 12 12 13 13 13
15 15 15 15 15 15 15 15 15 15 14 14 14 14 14 14 14 14 14 14 14 14 14 14 14 14 14 13 13 13 13 13 13 12 12 12 12 11 11 11 11 11 11 11 11 11 10 11 11 11 11 11 11 11 11 11 12 12 12 12 12 12 12 12 11 11 12 12 12 12 12 12 12 12 12 12 13 13 12 12 12 13 13 14 14
15 15 15 15 15 15 15 15 15 14 14 14 14 14 14 14 14 14 14 14 14 14 14 14 14 14 14 14 13 13 13 13 13 12 12 12 12 11 11 11 11 11 11 11 11 11 11 11 11 11 11 11 11 12 12 12 12 12 12 12 12 12 12 12 11 11 12 12 12 12 12 12 12 12 12 12 12 13 13 13 12 13 13 13 13
15 15 15 15 15 15 15 14 14 14 14 14 14 14 14 14 14 14 14 14 14 14 14 14 14 14 14 14 14 13 13 13 13 13 12 12 12 11 11 11 11 10 10 11 11 11 11 11 11 12 12 11 12 12 12 12 12 12 11 11 12 12 12 12 12 12 12 12 12 13 13 13 13 13 13 12 12 13 13 12 12 12 12 13 13
15 15 15 15 15 15 15 14 15 15 15 15 14 14 14 14 14 14 14 14 14 14 15 15 15 15 14 14 14 14 13 13 13 13 13 12 12 12 11 11 10 10 10 11 11 11 11 12 12 12 12 11 12 12 12 12 11 11 11 11 11 11 11 11 11 12 12 12 12 13 13 13 13 13 13 12 12 13 13 12 12 12 12 12 13
15 15 15 15 15 15 15 15 15 15 15 15 15 15 15 14 14 14 14 14 14 14 15 15 15 15 15 14 14 14 14 13 13 13 13 13 12 12 12 11 10 10 10 11 11 11 12 12 12 12 12 12 12 12 12 11 11 11 11 11 11 10 10 11 11 11 12 12 12 12 12 12 13 13 13 13 13 13 13 13 13 12 12 12 12
16 15 15 15 15 15 15 15 15 15 15 15 15 15 15 15 15 15 15 15 14 14 14 15 15 15 15 14 14 14 14 14 13 13 13 13 12 12 12 11 10 10 10 11 11 12 12 12 12 12 12 12 12 12 12 11 11 11 11 11 10 10 10 10 11 11 11 11 11 12 12 12 12 13 13 13 13 13 13 13 13 13 12 12 12
16 15 15 15 15 15 15 15 15 15 15 15 15 15 15 15 15 15 15 15 15 15 15 14 15 15 15 15 14 14 14 14 14 13 13 13 13 12 12 11 11 11 11 11 11 12 12 12 12 12 12 12 12 12 11 11 11 11 11 10 10 10 10 10 10 11 11 11 11 11 12 12 12 12 12 13 13 13 13 13 13 13 13 12 12
16 15 15 15 15 15 15 15 15 15 15 15 15 15 15 15 15 15 15 15 15 15 15 15 15 15 15 15 15 15 14 14 14 13 13 13 13 12 12 12 11 11 11 11 11 12 12 12 12 12 11 11 11 11 11 11 11 11 10 10 10 10 10 10 10 10 10 10 10 11 11 11 12 12 12 12 12 13 12 12 12 12 12 12 12
16 16 16 15 15 15 15 15 15 15 15 15 15 15 15 15 15 15 15 15 15 15 15 15 15 15 15 15 15 15 15 14 14 14 13 13 13 12 12 12 11 11 11 11 11 12 12 12 12 11 11 11 11 11 11 11 10 10 10 10 10 10 10 10 10 10 10 10 10 10 10 11 11 11 12 12 12 12 12 12 12 12 12 12 13
16 16 16 16 16 16 16 15 15 15 16 15 15 16 16 16 16 16 15 15 15 15 15 15 15 15 15 15 15 15 15 14 14 14 13 13 13 13 12 12 12 11 11 11 11 12 12 12 11 11 11 11 11 11 11 11 10 10 10 10 10 10 10 10 10 9 9 9 9 9 10 10 10 11 11 11 12 12 12 12 12 12 12 12 13
16 16 16 16 16 16 16 16 16 16 16 16 16 16 16 16 16 16 16 16 15 15 15 15 15 15 15 15 15 15 15 14 14 14 13 12 12 13 12 12 12 11 11 12 12 12 12 12 11 11 11 11 11 11 11 10 10 10 10 10 10 10 10 9 9 9 9 9 9 9 9 9 10 10 10 11 11 12 12 12 12 12 12 13 13
17 17 16 16 16 16 16 16 16 16 16 16 16 16 16 16 16 16 16 16 16 16 15 15 15 15 15 15 15 15 15 15 14 14 13 13 12 12 12 12 12 12 12 12 12 12 12 12 12 11 11 11 11 11 10 10 10 10 10 10 10 10 9 9 9 9 8 9 9 9 9 9 10 10 10 11 11 11 11 12 12 13 13 13 13
17 17 17 17 17 17 17 17 17 16 16 16 16 16 16 16 16 16 16 16 16 16 16 16 16 15 15 15 15 15 15 15 14 14 14 13 12 12 12 12 12 12 12 12 12 12 12 12 12 11 11 11 11 11 10 10 10 10 10 10 10 10 9 9 9 8 8 8 8 9 9 9 9 10 10 10 10 10 10 11 12 12 13 13 13
17 17 17 17 17 17 17 17 17 17 16 16 16 16 16 16 16 16 16 16 16 16 16 16 16 15 15 15 15 15 15 15 14 14 14 13 13 12 12 12 12 12 12 12 12 12 12 12 12 11 11 11 11 11 10 10 10 10 10 10 10 9 9 9 9 8 8 8 8 9 9 9 9 9 9 9 9 10 10 10 11 11 12 12 12
17 17 17 17 17 17 17 17 17 17 16 16 16 16 16 16 16 16 16 16 16 16 16 16 16 16 15 15 15 15 15 15 14 14 14 14 13 13 12 12 12 12 12 12 12 12 12 12 12 12 11 11 11 11 11 10 10 10 10 10 10 10 9 9 9 8 8 8 8 8 8 8 8 8 8 9 9 9 9 10 10 10 11 11 10
17 17 17 17 17 17 17 17 17 16 16 16 16 16 16 16 16 16 16 16 16 16 16 16 16 16 16 16 16 15 15 15 15 14 14 14 13 13 12 12 12 12 12 12 11 11 11 12 12 12 11 11 11 11 10 10 10 10 10 10 10 9 9 9 9 8 8 8 8 8 8 8 8 8 8 8 8 9 9 9 9 9 10 9 9
16 17 17 17 17 17 17 17 17 16 16 16 16 16 16 16 16 16 16 16 16 16 16 16 16 16 16 16 16 16 16 15 15 14 14 13 13 13 12 12 12 12 11 11 11 11 11 11 11 12 12 11 11 11 10 10 10 10 10 10 10 9 9 9 9 8 8 8 8 8 8 8 8 8 8 8 8 8 8 8 9 9 9 9 8
16 17 17 17 17 17 17 17 17 16 16 16 16 16 16 16 17 17 17 17 17 17 17 17 17 16 16 16 16 16 16 15 15 15 14 13 13 13 12 12 11 11 11 11 11 11 11 11 11 11 11 11 11 11 10 10 10 10 10 10 10 9 9 9 9 8 8 8 8 8 8 8 8 8 7 7 8 8 8 8 8 8 8 8 8
17 17 17 17 17 17 17 17 17 17 17 17 17 17 16 16 16 17 17 17 17 17 17 17 17 17 17 16 16 16 16 15 15 14 14 13 13 12 12 12 11 11 11 11 11 11 11 11 11 11 11 11 11 11 11 10 10 10 10 10 10 10 9 9 9 8 8 8 8 8 8 8 8 7 7 7 7 7 7 7 7 7 7 8 8
17 17 17 17 17 17 17 17 17 17 17 17 17 17 17 17 16 16 17 17 17 18 18 18 17 17 17 17 17 16 16 15 15 14 14 13 13 13 12 12 11 11 11 11 11 11 11 11 12 12 12 11 11 11 11 11 10 10 10 10 10 10 9 9 9 8 8 8 8 8 8 8 8 8 7 7 7 7 7 7 7 7 7 7 7
17 17 17 17 17 17 17 17 17 17 17 17 17 17 17 17 17 17 17 17 17 17 18 18 18 18 17 17 17 17 16 16 15 14 14 14 13 13 12 12 11 11 11 11 11 11 11 12 12 12 12 11 11 11 11 11 10 10 10 10 10 9 9 9 9 8 8 8 8 8 8 8 8 7 7 7 7 7 7 7 7 7 7 7 7
17 17 17 17 17 17 17 17 17 17 17 17 17 17 17 17 17 17 17 17 17 17 17 18 18 18 17 17 17 17 17 16 15 15 14 14 14 13 13 12 12 12 12 11 11 12 12 12 12 12 12 12 11 11 11 11 11 10 10 10 10 9 9 9 9 9 8 8 8 8 8 8 8 7 7 7 7 7 7 7 7 7 7 7 7
18 18 18 18 18 18 18 18 18 18 18 18 18 18 18 17 17 18 18 18 18 18 17 18 18 18 18 17 17 17 17 16 16 15 15 14 14 14 13 13 12 12 12 12 12 12 12 12 12 12 12 12 12 11 11 11 11 11 10 10 10 9 9 9 9 9 8 8 8 8 8 8 8 7 7 7 7 7 7 7 7 7 7 7 7
18 18 18 18 18 18 18 18 18 18 18 18 18 18 18 18 18 18 18 18 18 18 18 18 17 17 18 18 17 17 16 16 16 16 15 15 14 14 14 13 13 12 12 12 12 12 12 12 12 12 12 12 12 11 11 11 11 11 10 10 10 9 9 9 9 8 8 8 8 8 8 8 8 7 7 7 7 7 7 7 7 7 7 7 7
18 18 18 18 18 18 18 18 18 18 18 18 18 18 18 18 18 18 18 18 18 18 18 18 17 18 18 18 17 17 16 16 16 16 16 15 15 14 14 14 13 13 13 13 12 12 12 12 13 13 13 13 12 11 11 11 11 11 10 10 10 9 9 9 9 9 8 8 8 8 7 7 7 7 7 7 7 7 7 7 7 7 7 7 7
18 18 18 18 18 18 18 18 18 18 18 18 18 18 18 18 18 18 18 18 18 18 18 18 18 18 18 18 18 17 17 17 17 16 16 16 15 15 14 14 14 14 14 13 13 13 13 13 13 13 13 13 12 12 11 11 11 11 10 10 10 9 9 9 9 9 9 9 8 8 8 7 7 7 7 7 7 7 7 7 7 7 7 7 7
18 18 18 18 18 18 18 18 18 18 19 18 18 18 18 18 18 18 18 18 18 18 18 18 18 18 18 18 18 17 17 17 17 16 16 16 16 15 15 15 14 14 14 14 14 14 13 13 13 13 13 13 13 12 11 11 11 11 10 10 10 10 9 9 9 9 9 9 8 8 8 7 7 7 7 7 7 7 7 7 7 7 7 7 7
18 18 19 19 19 19 19 19 19 19 19 18 18 18 18 18 18 18 18 18 18 18 18 18 18 18 18 18 18 17 18 18 18 17 16 16 16 16 16 15 15 15 15 14 14 14 14 14 13 13 13 13 13 12 12 11 11 11 11 10 10 10 9 9 9 9 9 9 8 8 8 8 7 7 7 7 7 7 7 7 7 7 7 7 7
18 18 19 19 19 19 19 19 19 19 18 18 18 18 18 18 18 19 19 19 18 18 18 18 18 18 18 18 18 18 18 18 18 17 17 17 16 16 16 16 15 15 15 15 15 14 14 14 14 14 13 13 13 12 12 12 12 11 11 10 10 10 10 9 9 9 9 9 8 8 8 8 8 7 7 7 7 7 7 7 7 7 7 7 7
19 19 19 19 19 19 19 19 19 19 18 18 18 19 19 19 19 19 19 19 18 18 18 18 18 18 18 18 18 18 18 18 17 17 17 17 17 16 16 16 16 16 15 15 15 15 15 14 14 14 14 13 13 13 12 12 12 12 11 11 10 10 10 9 9 9 9 9 9 9 8 8 8 7 7 7 7 7 7 7 7 7 7 7 7
19 19 19 19 19 19 19 19 19 18 18 19 19 19 19 19 19 19 19 19 18 18 18 18 18 18 18 18 18 18 18 18 18 17 17 17 17 17 17 16 16 16 16 15 15 15 15 15 14 14 14 14 13 13 12 12 12 12 11 11 11 10 10 10 9 9 9 9 9 8 8 8 8 8 7 7 7 7 7 7 7 7 7 7 7
19 19 19 19 19 19 19 19 18 18 18 19 19 19 19 19 19 19 19 19 19 18 18 18 18 18 18 18 18 18 18 18 17 17 17 17 17 17 17 17 16 16 16 16 15 15 15 15 15 15 14 14 14 13 12 12 12 12 12 11 11 10 10 10 9 9 9 9 9 8 8 8 8 7 7 7 7 7 7 7 7 7 7 7 7
19 19 19 19 19 19 19 19 18 18 18 19 19 19 19 19 19 19 19 19 18 18 18 18 18 18 18 18 18 18 18 17 17 17 17 17 17 17 17 17 16 16 16 16 16 15 15 15 15 15 15 14 14 13 13 12 12 12 12 11 11 10 10 10 9 9 9 9 9 8 8 8 7 7 7 7 6 7 7 6 7 7 7 7 7
19 19 19 19 19 19 19 18 18 18 18 19 19 19 19 19 19 19 19 19 18 18 18 18 18 18 18 18 18 18 18 17 17 17 17 17 17 17 17 17 17 16 16 16 16 16 15 15 15 15 15 14 14 14 13 12 12 12 12 11 11 11 10 10 9 9 9 9 9 8 8 8 7 7 7 6 6 6 6 6 6 6 6 7 7
19 19 19 19 19 18 18 18 18 18 19 19 19 19 19 19 19 19 19 19 18 18 18 18 18 18 18 18 18 18 18 17 17 17 17 17 17 17 17 17 16 16 16 16 16 16 16 16 15 15 15 14 14 14 13 13 12 12 12 11 11 11 10 10 10 9 9 9 9 8 8 7 7 7 7 6 6 6 6 6 6 6 6 7 7
19 19 19 19 19 19 18 18 18 19 19 19 19 19 19 19 19 19 19 19 18 18 18 18 18 18 18 18 18 18 18 17 17 17 17 17 17 17 17 17 16 16 16 16 16 16 16 16 15 15 15 14 14 14 13 13 13 12 12 11 11 11 10 10 10 10 9 9 9 8 8 8 7 7 7 6 6 6 6 6 6 6 6 6 7
19 19 19 19 19 19 19 19 19 19 19 19 19 19 19 19 19 19 19 19 19 19 18 18 18 18 18 18 18 18 18 18 17 17 17 17 17 17 17 17 16 16 16 16 16 16 16 16 15 15 15 14 14 14 13 13 13 12 12 12 11 11 10 10 10 10 9 9 9 8 8 8 7 7 7 7 6 6 6 6 6 6 6 6 7
Height
843 844 843 843 842 841 841 841 840 840 839 839 839 838 838 838 838 838 838 838 837 836 835 834 832 831 830 828 826 824 824 823 822 822 822 821 821 821 820 819 819 818 818 817 816 815 814 812 811 810 808 807 805 804 803 802 801 800 799 799 798 797 797 797 797 796 794 793 792 791 789 788 786 785 784 782 781 779 777 776 774 774 774 774 772
844 844 843 843 843 842 842 842 841 841 840 840 840 839 839 840 839 840 839 839 838 837 836 835 834 833 831 829 828 826 825 825 824 824 824 823 823 822 822 821 820 820 819 818 817 816 815 813 812 811 809 808 807 805 804 802 801 800 799 799 799 798 797 797 797 796 795 794 793 792 790 789 788 786 785 784 783 782 780 779 778 777 776 774 773
844 844 844 843 843 843 843 842 842 842 841 841 841 841 841 841 841 841 840 840 839 838 837 836 835 834 832 831 829 828 827 827 826 826 826 825 825 824 824 823 822 821 820 819 818 817 816 814 813 812 810 809 808 806 805 804 802 801 800 799 799 798 798 797 796 796 796 796 795 793 792 790 789 788 787 786 785 783 782 781 780 780 778 777 776
845 844 844 844 844 844 843 843 843 843 842 842 842 842 842 842 842 842 842 841 841 840 839 838 836 835 833 832 831 830 829 829 828 828 828 827 827 826 825 824 824 823 822 821 819 818 817 815 814 813 811 810 809 807 806 805 803 802 801 800 799 798 798 797 797 796 796 796 796 795 794 792 791 789 788 787 786 785 783 782 781 781 781 780 778
845 845 845 844 845 844 844 844 844 844 844 844 844 844 844 844 844 843 843 843 842 841 840 839 837 836 834 833 832 832 831 831 830 830 829 829 828 827 827 826 825 824 823 822 821 819 818 816 815 814 812 811 809 808 807 806 804 803 801 800 800 799 798 797 797 797 797 796 796 796 795 794 792 791 789 788 786 785 784 783 782 782 782 782 781
845 845 846 845 845 845 845 845 845 845 845 845 845 845 845 845 845 845 844 844 843 842 841 840 838 837 836 834 834 833 833 832 832 831 831 830 829 829 828 828 827 826 824 823 821 820 819 818 816 815 813 812 811 809 808 806 805 804 802 801 800 799 798 798 798 798 797 797 796 796 795 795 794 792 790 789 787 786 784 783 782 782 781 781 782
845 846 846 846 846 846 845 846 846 846 846 846 847 846 846 846 846 846 845 845 844 843 842 841 840 838 837 836 835 835 834 834 833 833 832 831 831 830 829 829 828 827 826 824 822 821 820 819 817 816 815 813 812 810 809 808 806 805 804 802 802 801 800 799 799 798 798 797 797 796 796 796 795 793 792 790 788 787 785 783 782 782 781 780 780
846 846 847 846 847 846 846 847 847 847 847 847 848 847 847 847 847 846 846 846 845 844 843 842 841 840 839 837 837 836 835 835 834 834 833 832 832 831 830 830 829 828 827 825 824 822 821 820 818 817 816 815 813 812 810 809 807 806 805 804 803 802 801 800 800 799 799 798 798 798 797 796 795 794 792 790 789 788 787 786 785 783 782 781 781
846 847 847 847 847 847 847 848 848 848 848 848 848 848 848 848 848 847 847 846 846 845 844 844 843 842 840 839 838 837 836 836 835 835 834 833 832 832 831 831 830 829 828 827 825 824 822 821 819 818 817 816 814 813 811 810 809 807 806 805 804 803 803 802 801 800 800 799 799 799 798 797 796 795 794 792 792 791 790 789 787 785 783 783 781
847 847 847 847 848 848 848 848 849 849 849 849 849 849 849 848 848 848 848 847 847 846 846 845 844 843 842 841 840 839 837 837 836 836 835 834 834 833 832 831 831 830 829 828 827 825 824 822 821 819 818 816 815 813 812 811 810 809 808 807 806 805 804 803 802 801 801 801 801 800 799 799 798 797 796 795 794 793 792 790 789 787 785 784 783
847 847 848 848 848 849 849 849 850 850 850 850 850 850 850 849 849 849 848 848 848 847 847 846 845 844 843 842 841 840 839 838 837 837 836 835 834 833 833 832 831 831 830 829 828 826 825 824 822 820 819 817 816 814 813 812 810 810 809 808 807 806 805 804 804 803 802 801 801 801 801 800 799 798 798 797 795 794 793 792 791 789 787 786 785
847 847 848 848 848 849 849 850 850 850 850 850 850 850 850 850 850 850 849 849 848 848 847 847 846 845 845 844 843 841 841 840 839 838 837 836 835 834 834 833 832 832 831 829 828 827 826 824 823 821 820 818 817 815 814 813 812 810 810 808 808 807 806 805 804 803 802 802 802 802 801 801 800 800 799 797 796 795 794 793 792 791 790 789 788
848 848 848 848 849 849 850 850 850 851 851 851 851 851 851 851 850 850 850 849 849 848 848 847 846 846 845 845 844 843 842 841 840 839 838 837 836 835 834 834 833 832 831 830 829 828 827 825 824 822 821 819 818 817 815 814 813 811 810 809 808 807 806 805 804 804 803 802 802 802 802 801 801 801 800 798 797 796 795 794 793 792 791 790 789
848 848 848 849 849 849 850 850 851 851 851 851 851 851 852 851 851 851 850 850 849 849 848 847 847 846 846 845 845 844 843 842 841 840 839 838 837 836 835 834 833 833 832 831 830 829 828 826 825 823 822 820 819 818 816 815 814 812 811 810 809 808 806 806 805 804 804 803 802 802 802 802 801 801 800 799 798 796 795 794 793 792 791 791 790
848 849 849 849 849 849 850 851 851 851 851 852 852 852 852 852 851 851 851 850 850 849 848 848 847 846 846 846 845 845 844 843 842 841 839 838 837 836 835 834 834 833 832 831 830 829 828 827 826 824 823 821 820 819 817 816 815 814 812 811 810 809 808 807 806 805 805 804 803 803 803 802 802 801 801 800 798 797 796 795 794 792 791 790 790
849 849 849 849 849 850 850 851 851 851 852 852 852 852 852 852 851 851 851 850 850 849 848 848 847 846 846 846 845 845 844 843 842 841 840 839 838 837 836 835 834 833 832 831 830 829 829 827 826 825 823 822 821 819 818 817 816 815 813 812 811 810 809 809 808 807 806 805 805 804 803 803 802 801 801 800 799 798 796 795 794 792 791 790 790
849 849 850 850 850 850 851 851 851 852 852 852 852 852 852 852 852 851 851 850 850 849 848 848 847 847 846 845 845 844 844 843 843 842 841 839 838 837 836 835 834 833 832 831 831 830 829 828 826 825 824 822 822 820 819 818 817 816 814 813 812 810 809 809 808 808 807 806 806 805 804 803 802 802 801 800 799 798 796 795 794 793 792 791 790
849 850 850 850 851 851 851 852 852 852 852 852 852 852 852 852 852 851 851 850 849 849 848 847 847 846 846 845 845 844 844 843 843 842 841 840 839 837 836 835 834 833 832 832 831 830 829 828 827 826 824 823 822 821 820 819 818 817 815 814 812 811 810 809 808 808 807 807 806 805 804 804 803 802 801 800 799 798 797 796 795 795 794 793 792
850 850 851 851 852 852 852 852 852 853 853 853 853 852 852 852 851 851 851 850 849 849 848 847 847 846 846 845 844 844 843 843 842 842 841 840 839 838 837 836 834 833 833 832 831 830 829 828 827 826 825 824 823 822 821 820 819 817 816 815 813 812 811 810 809 808 807 807 806 805 805 804 803 803 802 801 800 798 797 796 796 795 795 794 793
850 851 851 851 852 852 852 853 853 853 853 853 853 853 852 852 851 851 850 850 849 849 848 847 847 846 846 845 844 843 843 842 842 842 841 840 839 838 837 836 835 834 833 832 831 830 829 828 827 826 825 824 823 822 821 820 819 818 817 815 814 813 812 811 810 809 808 807 806 806 805 804 804 803 802 801 800 799 798 797 796 795 795 795 794
850 851 852 852 852 853 853 853 853 853 853 853 853 852 852 852 851 851 850 850 849 848 848 847 846 846 845 844 844 843 842 841 841 841 840 840 839 838 837 836 835 834 833 832 831 830 829 828 827 827 826 825 824 823 822 821 820 819 818 817 815 814 813 812 811 810 809 808 807 806 805 804 803 803 802 802 801 799 798 797 796 796 795 795 795
851 851 852 852 852 853 853 853 853 853 853 852 852 852 852 851 851 850 850 849 848 848 847 847 846 845 844 844 843 842 841 841 840 840 840 840 839 838 837 836 835 835 834 833 831 830 830 829 828 827 827 826 825 824 823 823 822 820 819 818 817 815 814 813 812 810 809 808 807 806 805 804 804 803 802 802 801 800 799 798 797 796 796 795 795
850 851 851 852 852 852 852 853 852 852 852 852 852 852 851 851 850 850 849 849 848 847 847 846 846 844 844 843 842 841 841 840 839 839 839 839 839 838 837 837 836 835 834 833 832 831 830 829 829 828 827 827 826 825 824 824 823 821 820 819 818 817 815 814 813 811 810 809 808 807 806 805 805 804 803 803 802 801 800 799 798 797 797 796 795
850 851 851 851 852 852 852 852 852 852 852 852 851 851 851 850 850 849 849 848 847 847 846 845 845 844 843 842 841 840 840 839 839 838 838 838 838 837 837 836 836 835 834 833 832 831 831 830 829 829 828 827 827 826 825 824 824 823 821 820 819 818 817 815 814 813 811 810 809 808 808 807 806 805 805 804 803 802 801 800 799 798 798 797 796
850 850 851 851 851 851 851 851 851 851 851 851 851 850 850 850 849 848 848 847 846 846 845 844 843 842 842 841 840 839 839 838 837 837 837 837 837 837 836 836 835 835 834 833 833 832 831 831 830 829 828 828 827 826 825 825 824 823 822 821 820 819 818 817 815 814 813 812 811 810 809 809 808 807 806 805 804 803 802 801 800 799 798 798 797
849 850 850 850 850 850 850 850 850 850 850 850 850 849 849 849 848 848 847 846 845 845 844 843 842 841 840 839 838 838 837 837 836 836 836 836 836 835 836 835 835 834 834 833 833 832 832 831 830 830 829 828 828 827 826 826 825 824 823 823 821 820 819 818 817 815 814 813 813 812 811 810 809 808 807 806 805 804 803 802 801 800 799 798 798
849 849 849 849 849 849 849 849 849 849 849 849 849 848 848 848 847 847 846 845 844 844 843 842 841 840 839 838 837 836 835 835 835 834 834 834 834 834 834 834 834 834 833 833 832 832 832 831 830 830 829 829 828 828 827 826 826 825 824 824 823 822 821 819 818 817 816 815 814 813 812 811 810 809 808 807 806 805 804 803 802 801 800 799 798
848 849 849 848 848 848 849 849 849 849 848 848 848 847 847 847 846 846 845 844 843 842 842 841 840 839 838 836 835 834 834 833 833 833 833 833 833 833 833 833 833 833 833 833 832 832 831 831 830 830 829 829 829 828 827 827 826 826 825 824 823 823 822 821 819 818 817 817 816 815 813 812 811 810 809 808 807 806 805 804 803 802 801 800 799
848 848 848 848 848 848 848 849 848 848 848 847 847 847 846 846 845 844 844 843 842 841 841 840 839 838 836 835 834 833 832 832 832 832 831 831 831 831 832 832 832 832 832 832 831 831 831 830 830 830 829 829 829 828 828 827 827 826 826 825 824 824 823 822 820 819 819 818 817 816 815 813 812 812 810 809 808 808 806 805 804 803 802 801 801
847 848 848 848 848 848 848 848 848 848 848 847 847 846 845 845 844 843 842 842 841 841 840 839 838 837 835 834 833 832 831 831 830 830 830 830 830 830 831 831 831 831 831 831 831 831 830 830 829 829 829 828 828 828 828 827 827 826 826 825 825 824 824 823 822 821 820 819 818 817 816 815 814 813 812 811 810 809 808 807 806 805 804 803 803
847 847 847 847 847 847 847 847 847 847 847 846 846 845 844 844 843 842 841 841 840 839 839 838 837 836 834 833 832 831 830 830 829 829 829 829 829 829 830 830 830 830 830 830 830 830 829 829 829 828 828 828 828 828 828 827 827 826 826 825 825 825 824 824 823 822 821 821 820 819 818 817 816 815 814 813 812 811 810 809 807 807 806 805 805
845 846 846 846 846 847 847 846 846 846 846 845 845 844 843 842 842 841 840 839 839 838 838 837 836 835 834 832 831 830 830 829 829 828 828 828 828 828 828 829 829 829 830 829 829 829 829 828 828 827 827 827 827 827 827 827 827 826 826 825 825 825 825 824 824 823 822 822 821 820 819 818 818 817 816 815 814 813 812 810 809 809 808 807 807
844 845 845 845 846 846 846 846 846 845 845 845 844 843 843 842 841 840 839 838 838 837 837 836 835 834 833 832 831 830 829 829 828 828 828 827 827 827 827 827 828 828 828 828 828 828 828 827 827 827 827 827 827 827 826 826 826 826 826 825 825 825 825 824 824 823 823 822 822 821 820 820 819 818 817 816 815 814 813 812 811 810 810 809 808
843 844 844 844 845 845 845 844 845 844 844 844 843 842 842 841 840 839 838 837 837 836 835 835 835 834 833 831 830 829 829 828 828 827 827 826 826 826 826 826 826 826 827 827 827 827 826 826 826 825 826 826 826 826 825 825 826 825 825 825 824 824 824 824 824 824 823 822 822 821 821 820 820 819 818 817 816 815 814 813 813 812 811 810 810
842 843 843 843 843 843 843 843 843 843 843 842 842 841 841 840 839 839 838 837 836 835 834 834 833 832 832 831 830 829 828 827 827 826 826 826 826 825 825 825 825 825 825 825 825 826 825 825 825 824 825 825 825 825 825 825 825 825 824 824 824 824 824 824 824 824 823 822 822 821 821 820 820 819 819 818 817 816 815 814 814 813 812 812 811
841 841 841 842 842 842 842 842 842 841 841 841 840 840 839 839 838 837 836 836 835 834 833 832 831 831 830 829 828 828 827 826 826 825 825 825 824 824 824 824 824 824 824 824 824 824 824 824 824 823 824 824 824 824 824 824 824 824 824 824 823 823 824 824 823 823 823 822 822 821 821 821 820 820 819 819 818 817 817 816 815 814 813 812 812
839 840 840 840 840 840 840 840 840 840 839 839 838 838 837 837 836 836 835 834 834 833 832 830 829 828 827 827 826 826 825 825 824 824 823 823 823 823 823 823 823 823 823 823 823 823 823 823 823 822 823 823 823 824 824 824 823 823 823 823 823 823 823 823 823 823 823 822 822 821 821 821 820 820 820 819 819 818 817 817 816 815 814 813 812
838 838 838 839 839 839 839 838 838 838 837 837 837 836 836 835 834 834 833 832 832 831 830 829 828 826 825 824 824 824 823 823 823 822 822 822 821 822 822 822 822 822 821 822 822 822 822 822 822 821 821 821 822 823 823 823 822 823 822 822 822 822 823 823 823 823 823 822 821 821 821 821 820 820 820 819 819 818 818 817 816 816 815 814 812
836 836 837 837 837 837 837 836 836 836 835 835 835 834 834 833 833 832 831 830 829 829 828 827 826 824 823 823 822 822 821 821 820 820 820 820 820 820 820 820 820 820 820 820 820 820 820 820 820 820 820 820 820 821 821 821 822 822 822 821 821 822 822 822 822 822 822 822 821 821 821 821 820 820 820 820 819 819 818 818 817 816 816 815 813
835 835 835 835 835 835 835 834 834 834 834 834 833 833 832 832 831 830 829 829 828 827 826 825 824 822 822 821 820 820 819 818 818 818 818 818 818 818 818 818 818 818 818 818 818 818 818 818 818 818 818 818 819 819 820 820 821 821 821 821 821 821 821 822 822 822 822 822 821 821 820 820 820 820 820 820 819 819 818 818 818 817 816 815 814
833 833 833 833 833 833 833 832 832 832 832 832 831 831 830 830 829 829 828 827 826 825 824 823 822 821 820 819 818 818 817 816 815 816 816 816 816 816 816 816 816 816 816 816 816 816 816 816 816 817 817 817 817 818 818 819 819 820 820 820 820 820 821 821 821 822 821 821 821 820 820 820 820 820 820 820 819 819 819 818 818 817 817 816 815
831 831 831 831 831 831 830 830 830 830 830 830 829 829 829 828 827 827 826 825 825 824 823 822 821 819 819 818 816 816 815 814 813 813 813 813 813 813 813 813 813 813 814 814 814 814 814 814 814 815 815 815 815 816 817 817 818 818 818 819 819 819 820 820 821 821 821 821 821 820 820 820 819 820 820 820 819 819 819 818 818 818 817 816 815
829 829 829 829 829 829 828 828 828 829 829 828 827 827 826 826 825 825 824 824 823 822 821 820 819 818 817 816 815 814 813 812 811 811 810 810 811 811 811 811 811 811 812 812 812 812 812 812 812 813 813 813 813 814 814 815 816 817 817 817 818 818 819 819 820 820 820 820 820 820 819 819 819 819 819 819 819 819 819 819 818 818 817 817 816
827 827 828 827 827 827 827 827 827 827 827 826 825 825 824 823 823 822 822 822 822 821 820 819 818 817 816 815 814 812 811 810 809 809 809 808 808 808 808 808 809 809 809 809 810 810 810 809 810 810 810 811 811 812 812 814 815 815 816 816 816 817 817 818 818 819 819 819 819 819 819 819 818 818 819 819 819 819 819 819 818 818 818 817 817
825 825 826 825 825 825 825 825 825 825 825 824 823 822 822 821 820 820 820 820 820 819 818 818 817 816 815 814 813 812 810 809 808 807 807 806 806 806 806 806 806 806 807 807 807 807 807 807 807 808 808 809 809 809 810 811 813 813 814 814 815 815 816 816 817 817 818 818 818 818 819 818 818 818 818 818 819 819 818 819 818 818 818 817 817
823 823 823 823 823 823 823 823 824 823 823 822 821 820 820 819 819 819 819 818 818 817 817 816 815 814 813 813 812 811 809 808 807 805 805 804 804 804 804 804 804 804 804 804 805 805 805 805 805 805 806 806 807 807 808 809 810 812 812 813 813 814 815 815 816 816 817 817 817 818 818 818 818 818 817 818 818 818 818 818 818 818 818 818 817
821 821 821 821 821 821 821 821 821 821 820 820 819 818 817 817 817 817 817 817 816 816 815 814 813 813 812 811 810 809 808 807 806 805 804 803 803 803 803 802 802 802 801 802 802 802 802 802 803 803 804 804 804 805 806 807 808 810 810 811 812 812 813 814 814 815 815 816 816 816 817 817 817 817 816 817 817 817 818 818 818 818 818 817 817
819 819 819 819 819 819 819 818 818 818 818 817 816 815 815 815 815 815 815 815 814 814 813 812 811 811 810 809 809 808 807 806 805 804 803 802 801 801 801 800 800 800 800 799 800 800 800 800 801 801 802 802 802 803 804 805 806 808 809 809 810 811 812 812 813 813 814 814 815 815 815 815 815 815 815 815 816 816 817 817 817 817 818 817 817
817 817 817 816 816 816 816 815 816 815 815 814 814 813 813 813 813 812 813 813 812 812 811 810 809 809 808 807 807 806 805 804 804 803 802 801 800 799 799 798 798 798 798 797 797 797 797 798 798 799 800 800 800 801 802 803 804 805 807 807 808 809 810 811 811 812 812 813 813 814 814 814 814 814 814 814 814 815 816 816 817 817 817 817 817
815 814 814 814 814 813 813 813 813 813 812 812 811 810 810 810 810 810 810 810 809 809 808 808 807 807 806 805 804 804 803 802 802 801 800 799 798 798 797 796 796 796 796 795 795 795 795 796 796 797 798 798 799 799 800 801 802 803 804 805 806 807 808 809 810 810 811 811 812 812 812 813 813 813 813 813 813 814 814 815 816 816 816 816 816
812 812 812 811 811 811 811 811 810 810 810 809 809 808 808 808 807 807 807 807 806 806 805 805 804 804 804 803 802 801 800 800 799 799 798 797 797 796 795 794 794 794 794 793 793 793 793 794 794 795 795 796 797 797 798 799 800 801 802 803 804 805 806 807 808 809 809 810 810 811 811 811 811 811 811 811 812 812 813 814 815 815 816 816 816
Wind_Speed
16 16 15 14 14 14 14 14 15 15 15 15 15 14 12 12 15 15 16 17 18 19 21 20 17 15 17 17 14 13 13 13 14 14 15 15 15 15 15 14 14 14 14 15 16 17 17 17 18 19 20 19 16 15 15 14 13 13 13 13 13 12 8 5 3 3 8 11 12 13 14 13 13 14 14 14 13 13 13 10 8 8 9 12 12
16 15 15 14 14 14 14 15 16 17 17 17 17 16 13 12 12 13 15 16 17 19 21 21 17 14 16 17 15 13 13 15 15 15 15 15 15 14 14 13 13 14 14 15 16 16 16 16 16 16 17 16 15 15 16 16 14 13 13 12 11 12 9 6 4 3 6 10 12 14 15 14 14 14 14 14 13 13 13 13 13 11 10 11 13
16 15 15 15 14 14 14 15 16 17 17 16 16 15 13 11 10 11 13 14 16 18 21 22 20 15 15 17 15 13 14 15 16 16 16 15 14 13 12 12 12 13 13 14 14 14 15 16 15 15 16 14 14 15 16 17 17 14 12 11 10 10 9 6 4 4 4 7 11 14 15 15 15 14 13 13 12 12 12 13 14 17 15 11 12
16 16 16 15 13 13 13 13 15 16 16 15 15 14 13 11 9 10 11 13 15 17 19 21 21 18 15 17 16 13 13 14 15 15 15 14 13 11 10 10 11 12 13 13 13 12 13 15 15 15 16 15 14 16 18 19 18 15 12 11 10 9 8 7 7 5 4 5 10 14 15 15 15 14 12 11 11 11 12 12 13 17 20 17 12
15 15 16 15 14 13 12 12 13 14 15 15 16 14 13 12 11 10 11 12 14 16 17 19 21 21 16 16 16 14 13 13 14 14 14 13 13 12 11 10 12 14 15 15 14 12 12 14 15 15 17 17 16 16 18 19 19 17 13 11 10 9 9 10 9 8 7 6 9 13 15 15 15 15 13 12 11 11 11 12 12 14 19 21 18
14 14 15 14 14 13 12 11 11 12 14 15 15 13 12 12 13 12 11 12 13 14 16 17 20 21 18 15 16 14 12 11 12 13 13 13 14 14 13 13 14 16 17 17 16 13 12 14 15 16 17 18 18 17 17 18 19 19 15 11 11 11 12 12 11 10 11 10 10 13 15 15 15 15 14 12 13 13 12 11 13 14 17 21 22
13 13 13 13 13 12 12 12 10 10 11 12 12 11 10 10 12 12 12 12 13 14 15 17 19 21 19 16 15 14 12 10 10 11 13 14 15 15 14 14 16 17 18 18 17 15 13 14 16 17 17 17 17 17 16 16 18 20 16 11 11 13 13 14 14 13 14 14 14 13 14 14 15 15 14 12 12 16 16 14 13 14 16 20 22
11 12 13 12 12 11 11 11 9 8 8 8 9 8 8 8 9 11 12 12 13 13 14 16 18 20 20 17 15 14 12 10 9 9 10 12 13 13 14 14 15 16 17 18 18 18 16 16 16 16 16 16 16 16 15 14 16 19 17 13 13 14 14 15 15 15 15 15 14 14 13 14 14 13 14 14 13 14 15 13 12 12 12 15 20
10 11 11 10 10 10 9 9 8 7 7 7 7 7 7 8 8 8 10 12 12 12 13 14 16 19 21 19 17 14 13 12 9 7 8 9 11 11 12 14 15 15 16 17 17 19 19 19 18 17 16 17 16 15 14 13 14 17 18 16 15 14 15 15 15 15 15 14 13 13 13 12 12 12 13 14 12 10 10 9 9 10 9 9 14
9 8 8 8 8 8 8 7 7 6 6 7 7 7 7 8 9 8 8 9 10 11 11 12 14 17 19 20 19 17 15 13 10 8 6 7 9 10 10 12 14 14 15 15 16 17 19 20 20 19 19 19 18 16 15 13 13 13 15 16 16 14 13 14 14 13 13 12 11 11 10 11 12 11 10 11 10 8 9 10 11 11 10 9 9
7 7 7 7 7 8 7 6 5 5 5 6 7 7 7 8 9 9 8 8 9 10 10 11 12 13 15 17 19 19 17 15 13 10 8 6 7 8 9 10 13 13 14 15 16 17 17 18 20 20 20 20 19 18 16 15 14 13 12 13 15 15 12 11 12 11 11 10 9 10 9 9 11 11 10 11 11 10 10 9 10 11 11 10 8
8 7 6 6 7 7 6 5 5 4 4 5 5 5 5 6 7 8 7 7 8 9 9 10 10 11 12 13 15 17 17 16 15 13 11 8 7 7 7 8 10 12 13 14 16 17 17 17 18 20 20 20 20 19 17 16 15 13 12 12 13 13 11 10 10 9 9 9 9 9 8 9 11 12 11 12 12 12 10 9 9 10 9 8 7
8 7 6 6 7 6 6 5 4 3 2 2 2 3 3 4 5 7 7 6 7 8 8 9 9 9 10 10 11 13 14 15 15 14 13 11 9 8 6 6 8 10 12 13 15 17 19 18 17 18 19 19 19 18 17 16 16 14 12 11 13 13 11 11 10 8 7 7 8 8 9 10 11 12 12 12 13 13 11 9 9 10 10 8 7
7 6 5 5 6 7 6 5 3 2 2 2 1 1 1 2 4 6 6 6 7 8 8 8 9 9 8 8 8 10 11 12 13 13 13 12 11 9 7 5 6 8 11 12 13 14 17 17 16 17 19 18 17 16 16 16 16 16 14 13 14 15 13 12 12 11 10 9 9 9 9 8 9 10 12 12 13 13 11 10 10 12 12 8 5
6 4 3 3 3 5 6 5 3 2 2 2 2 2 2 2 3 5 6 6 6 7 7 8 8 8 8 8 7 7 8 10 11 12 12 12 12 11 9 6 6 7 10 11 11 12 14 15 14 16 18 17 15 14 14 14 15 17 18 16 15 15 16 15 14 13 12 12 11 9 8 7 7 8 10 11 12 12 10 7 8 10 10 6 5
6 5 4 3 3 3 4 4 3 1 1 2 2 2 3 3 3 5 5 5 6 6 7 7 8 8 8 8 8 7 7 7 9 10 11 11 11 11 10 9 8 8 9 9 10 11 12 13 13 14 16 16 13 12 12 12 13 16 17 18 16 14 13 14 13 12 11 11 10 8 7 6 6 6 7 9 11 12 10 8 9 10 9 6 6
7 6 5 5 4 4 3 3 2 1 1 0 1 1 2 3 3 4 4 4 5 6 7 8 8 8 8 8 8 8 7 7 7 8 9 10 11 11 11 11 10 9 8 9 10 10 10 11 12 13 14 14 12 11 11 10 11 13 15 18 18 15 13 12 11 11 11 10 10 8 7 7 7 6 6 8 10 12 11 11 13 13 11 7 7
7 6 6 6 6 4 3 2 2 2 2 1 1 1 1 2 4 4 4 5 5 7 8 8 8 8 8 8 8 8 8 8 7 7 9 10 11 12 12 12 11 10 9 9 9 9 9 10 10 11 12 11 11 12 11 9 10 13 15 16 17 16 15 14 11 10 9 8 9 8 8 8 7 7 7 7 9 11 11 11 11 11 10 9 8
7 6 6 6 5 4 3 2 1 1 1 0 1 2 2 3 4 4 5 6 7 8 9 9 8 7 7 8 8 9 9 9 8 7 7 9 10 11 12 12 11 10 10 9 9 9 9 9 10 10 9 9 10 11 11 9 10 13 15 15 14 14 13 12 11 11 11 10 9 9 8 8 7 7 8 9 9 9 9 9 9 9 7 8 8
5 5 5 4 4 3 2 1 1 1 1 1 2 3 4 4 5 5 6 7 8 9 9 9 9 8 8 9 10 10 11 9 8 8 7 8 9 10 11 12 10 9 9 9 9 10 9 9 9 8 7 6 8 10 8 8 11 14 15 13 12 12 11 10 10 11 10 10 9 8 8 7 7 8 9 10 11 11 10 9 8 7 6 6 8
4 4 4 3 3 3 3 2 1 1 1 3 3 4 5 6 6 6 7 7 8 9 9 10 11 10 9 10 11 10 11 10 9 8 7 6 8 8 10 9 8 7 8 9 9 9 9 8 7 7 6 6 7 8 7 8 12 15 14 12 10 10 9 9 10 10 9 9 8 8 8 8 8 9 10 12 13 14 13 10 8 7 7 7 7
4 3 3 2 1 2 2 2 2 2 3 5 6 6 6 7 7 7 8 8 9 10 10 10 11 11 11 10 11 10 10 10 10 9 8 6 6 7 7 7 6 7 7 8 8 8 7 7 6 7 7 7 7 7 7 9 13 13 11 10 10 9 8 10 11 11 10 9 9 9 10 10 10 11 12 12 14 15 13 11 9 8 7 7 7
3 3 2 1 1 0 1 3 3 4 5 6 8 8 8 9 9 10 10 11 12 13 12 12 12 12 12 12 11 11 11 11 10 10 9 7 5 5 5 4 5 6 7 8 7 6 5 5 6 7 8 8 7 5 6 9 12 12 11 11 10 9 9 11 13 12 11 11 11 11 12 13 13 13 13 12 13 14 13 11 10 10 9 7 6
2 1 0 1 2 2 2 4 5 6 7 8 9 10 10 10 11 12 12 13 14 15 15 14 14 14 15 14 13 12 11 11 10 9 10 9 6 4 3 3 3 3 5 7 6 4 3 3 5 7 8 9 8 4 4 7 9 11 12 12 11 10 11 12 13 12 12 12 13 13 13 13 13 13 13 12 12 12 11 10 9 11 12 11 10
2 2 2 3 3 3 4 5 6 7 7 8 9 10 11 12 13 13 13 13 13 14 15 16 17 17 17 17 16 14 12 11 10 9 9 10 8 5 3 3 3 2 2 4 4 2 1 2 4 6 8 10 8 4 3 5 8 10 12 12 11 10 12 13 12 12 12 12 12 12 12 12 12 12 12 12 10 10 11 10 8 8 10 12 12
1 2 4 5 6 6 6 7 7 7 8 9 10 11 12 13 14 14 14 14 14 14 15 16 17 18 19 19 18 17 14 11 10 9 8 11 11 8 4 3 4 3 2 2 2 2 2 3 5 6 8 9 8 4 2 4 6 9 11 11 10 11 12 13 12 11 11 11 10 10 11 10 11 11 10 11 11 12 12 11 8 6 7 8 9
2 3 5 6 5 5 7 8 9 10 10 11 12 13 14 14 15 16 16 16 16 16 16 16 17 18 19 20 20 19 18 14 11 9 8 11 13 11 8 4 5 4 4 3 3 3 4 5 5 6 7 8 7 3 1 3 5 7 8 9 10 10 11 12 11 10 10 9 9 10 10 9 10 10 11 11 12 12 11 10 8 7 6 6 8
4 3 5 5 3 3 5 7 9 10 11 12 12 12 12 13 15 16 16 16 16 16 16 17 18 18 19 20 20 20 20 17 12 9 8 10 13 13 12 8 6 5 5 5 5 4 4 5 6 5 6 6 6 4 3 3 4 5 6 7 8 9 10 11 10 10 9 9 9 9 9 9 10 10 11 11 12 12 10 9 9 10 8 8 10
4 2 3 3 2 2 3 5 7 9 10 10 10 10 10 12 13 15 15 14 15 16 16 17 17 17 18 19 19 20 20 17 12 9 7 8 10 13 13 10 7 6 6 6 6 5 5 5 6 5 6 5 4 4 5 4 4 4 5 4 5 7 10 11 11 10 9 10 11 11 11 11 11 11 11 12 12 11 11 11 11 11 11 12 14
5 4 3 2 2 2 3 5 7 8 9 10 10 11 11 11 12 14 14 13 12 13 14 15 15 15 16 17 16 16 16 14 11 9 7 6 7 10 11 10 9 8 7 7 7 7 6 7 7 5 5 5 3 3 5 5 5 5 4 3 3 6 8 10 9 9 9 10 13 13 13 13 13 13 13 13 12 12 11 12 12 13 13 15 15
6 6 5 4 3 4 4 5 7 9 10 11 12 13 13 13 11 12 13 12 10 10 10 12 12 13 14 15 15 13 12 11 9 8 6 5 6 8 10 11 11 10 8 8 8 8 8 9 9 7 5 5 4 2 2 4 5 5 4 2 2 3 6 8 8 7 7 9 12 13 13 13 13 13 13 12 12 12 12 12 13 14 15 14 13
7 7 7 6 6 5 6 6 7 9 10 11 12 13 15 15 14 13 11 10 9 8 8 9 10 11 13 14 14 13 11 10 9 8 6 5 5 6 8 11 12 11 11 10 10 9 9 10 10 9 7 6 5 3 2 2 4 4 3 2 2 1 3 5 6 6 6 7 8 10 10 11 11 12 12 11 11 11 12 13 13 13 14 13 11
6 6 7 7 7 7 7 8 9 10 10 11 12 13 14 15 15 15 13 10 8 7 7 7 10 12 13 14 14 13 10 9 9 8 7 6 5 6 8 10 12 13 13 12 12 11 10 10 11 11 9 7 5 5 4 3 3 4 3 3 3 2 0 3 4 4 4 4 5 6 7 7 8 10 10 10 10 10 11 12 12 12 12 12 11
6 6 7 8 9 9 9 10 11 11 12 12 12 13 14 14 15 16 15 13 11 9 9 9 10 12 13 14 14 13 11 10 9 8 8 7 6 5 7 9 11 13 13 13 13 12 11 10 10 11 11 9 6 6 6 5 4 4 4 5 5 4 2 1 2 2 1 1 3 4 5 4 5 8 9 9 10 10 10 10 10 10 10 10 9
9 9 9 10 10 11 11 12 13 13 13 13 13 14 14 14 14 14 15 15 15 14 14 14 14 14 14 14 14 13 12 11 10 9 9 8 6 6 7 8 10 12 13 13 13 13 11 11 11 11 12 11 8 7 7 7 6 6 6 6 7 6 4 1 0 1 2 3 3 4 5 3 3 6 8 8 9 10 9 9 9 9 9 9 9
11 11 11 10 11 11 12 13 13 14 15 15 14 14 14 14 14 14 15 16 17 18 19 19 19 18 17 16 14 13 12 11 10 10 9 8 7 7 7 8 9 10 11 13 13 13 13 11 10 11 11 11 10 9 8 8 8 7 7 7 9 9 6 3 1 1 2 4 4 4 4 2 2 4 6 6 7 7 7 8 8 8 8 8 9
11 11 11 10 11 12 14 14 15 15 15 15 14 14 14 14 15 15 16 18 19 20 22 22 22 21 19 17 14 13 12 11 10 10 9 9 8 8 8 8 9 10 11 12 12 13 13 12 10 10 11 11 11 10 8 8 10 9 8 9 9 10 7 4 2 2 3 4 4 4 3 0 2 3 4 4 5 6 5 6 8 8 7 9 10
11 11 11 12 13 14 15 16 16 16 16 14 13 13 15 16 16 16 18 19 20 21 22 22 22 22 20 17 14 13 13 12 11 10 10 9 9 9 8 9 9 10 11 11 12 13 14 12 11 10 10 10 11 10 9 9 10 10 9 9 9 10 9 6 4 2 3 5 4 3 2 2 1 1 2 2 4 5 4 5 8 8 8 10 11
11 11 11 12 13 15 16 17 17 17 16 14 13 13 15 16 16 17 18 20 21 22 22 22 22 21 18 16 14 12 13 14 14 12 10 10 10 10 10 10 10 11 11 11 11 13 14 14 12 11 11 11 12 11 11 10 11 10 9 9 9 11 10 7 5 3 4 4 4 3 3 3 3 0 1 2 3 4 4 5 7 7 7 10 12
11 11 11 12 13 15 16 16 17 17 15 14 14 14 15 16 17 18 18 19 20 21 21 21 21 19 17 16 14 12 12 15 16 15 12 11 11 11 12 12 12 12 12 12 11 12 13 14 13 12 12 12 12 12 12 12 11 10 10 10 11 13 11 8 5 3 3 3 3 3 3 5 4 3 1 2 2 2 3 3 5 6 7 9 12
12 13 14 14 15 15 16 16 16 15 15 14 14 15 16 16 17 17 17 17 18 18 18 18 18 17 15 15 14 12 12 14 16 16 15 14 13 13 13 13 13 13 13 13 13 13 13 13 13 13 13 13 12 12 13 13 12 12 11 11 13 14 12 9 7 4 3 2 2 3 4 5 6 5 3 2 1 1 2 3 4 5 7 9 11
14 15 15 15 15 15 15 15 15 14 14 14 15 16 16 17 16 16 15 15 16 18 18 18 17 15 13 13 13 13 13 13 14 16 16 16 16 16 15 14 14 13 14 14 14 14 14 14 14 14 14 14 13 12 14 14 14 13 13 13 14 15 14 11 8 6 4 3 1 2 3 4 6 6 5 3 2 1 1 2 3 4 6 9 10
15 15 15 15 14 14 14 13 13 14 13 13 15 16 16 17 17 16 15 15 16 16 16 14 12 11 11 12 13 14 14 14 14 15 16 17 17 18 17 16 15 14 14 14 14 14 15 15 15 15 15 15 14 13 14 15 14 13 14 14 14 15 15 13 10 8 6 4 3 2 2 4 5 6 6 4 3 2 1 1 2 3 5 7 9
16 16 16 16 15 14 13 13 13 13 13 13 15 16 17 18 18 17 15 14 15 14 13 11 10 9 10 12 13 13 14 14 14 14 15 15 16 17 18 17 16 15 14 14 14 14 14 15 15 15 15 15 15 13 14 15 14 13 14 15 15 15 15 14 13 11 8 6 5 4 3 4 5 7 7 6 5 4 3 2 2 2 4 5 8
17 17 16 16 15 14 14 14 13 13 13 15 17 18 18 18 18 16 14 14 14 13 12 11 11 10 11 11 11 12 13 13 13 13 14 14 15 15 15 16 16 15 15 15 14 13 13 14 14 15 15 16 15 14 14 14 14 14 14 15 15 14 12 11 12 12 10 9 8 7 5 4 5 7 8 7 6 5 4 3 2 3 4 4 6
16 15 15 15 14 13 13 13 13 14 16 17 18 19 18 18 17 15 13 14 14 14 14 14 13 12 12 11 10 11 12 12 12 12 12 12 12 12 12 12 12 12 13 14 13 13 13 13 13 13 13 15 16 15 14 14 15 14 14 15 15 14 10 8 9 11 12 11 10 9 8 6 6 7 8 9 8 7 6 5 4 4 4 4 5
14 14 14 14 13 14 14 15 16 17 19 20 20 19 18 17 16 15 14 15 15 15 16 16 15 14 13 11 10 11 11 12 13 13 11 11 11 10 10 10 9 9 10 11 11 12 13 13 13 12 12 13 15 15 13 13 15 14 14 14 15 13 10 8 8 10 12 12 12 11 10 9 8 7 8 10 11 10 8 7 5 4 4 3 4
14 14 14 15 15 17 18 18 18 20 21 21 21 19 17 17 17 17 16 16 16 16 17 17 16 15 14 12 11 11 11 11 12 13 12 11 11 10 10 10 9 9 10 11 11 11 12 13 13 12 11 12 14 14 12 12 14 15 14 14 13 13 11 9 8 9 10 12 13 12 12 11 10 9 9 9 11 11 10 8 7 6 4 3 4
15 15 16 16 17 17 18 18 19 20 21 21 21 20 18 17 18 19 19 18 18 18 18 17 16 15 14 13 12 12 12 12 12 12 11 11 11 11 12 11 10 10 11 11 12 12 12 12 13 13 12 12 13 13 11 11 14 15 15 14 12 11 11 10 10 9 10 11 12 13 12 12 11 10 9 9 11 12 11 9 8 7 5 3 4
16 16 16 16 16 16 17 17 18 20 21 21 20 19 18 18 19 20 20 20 21 21 20 19 17 16 15 14 14 14 14 13 13 12 11 11 11 12 13 13 12 12 11 11 11 11 12 13 13 13 12 12 12 11 11 11 14 16 16 14 13 12 11 11 11 11 11 11 11 12 12 11 10 10 10 8 10 12 12 10 8 6 5 3 4
17 18 18 18 17 16 16 17 19 20 21 21 21 21 21 21 21 21 21 22 22 23 23 22 20 19 17 16 15 16 16 16 15 14 14 13 13 13 13 13 13 12 11 11 10 11 12 13 14 13 13 12 12 12 12 12 14 16 16 15 14 13 13 14 13 13 13 12 12 11 11 11 10 10 9 8 9 11 12 11 9 7 5 4 4
Wind_Direction
121 114 109 103 96 92 88 85 79 71 66 63 60 59 66 86 89 76 65 59 52 47 44 40 39 41 40 40 44 52 65 79 81 80 76 69 65 59 53 49 48 46 42 39 35 31 27 23 21 17 12 13 19 20 19 18 20 26 30 32 33 32 31 39 31 342 8 24 32 38 45 52 53 51 49 49 50 46 42 37 26 10 5 360 336
122 114 108 100 94 95 95 89 79 72 69 65 61 62 70 84 83 69 62 59 54 52 48 43 41 41 40 43 51 61 71 80 79 74 70 66 61 57 51 48 49 48 42 36 31 26 21 16 14 12 7 11 23 26 24 22 18 21 28 30 31 32 28 26 40 29 5 15 30 40 46 50 51 50 48 49 53 56 54 50 46 43 32 18 12
121 113 105 99 98 100 98 90 79 73 69 65 63 63 67 74 70 63 62 59 56 55 50 44 40 40 43 45 54 69 76 79 76 70 65 62 57 55 51 50 52 48 40 33 28 23 19 16 14 12 10 13 24 27 26 25 21 19 24 28 31 34 34 32 40 50 25 19 30 38 42 42 41 41 45 49 51 52 52 50 51 53 49 37 28
119 111 105 101 100 98 94 88 78 73 71 67 65 61 59 60 59 59 61 57 55 54 50 42 37 39 47 51 55 70 80 79 74 68 64 59 56 55 54 56 55 46 35 29 25 23 22 19 16 13 14 15 18 21 23 24 23 22 23 27 29 32 45 58 60 62 59 45 41 41 43 41 35 31 34 42 47 50 49 44 46 53 55 53 42
118 111 106 100 95 90 89 86 79 76 74 69 64 60 56 53 51 54 56 51 49 47 43 40 35 36 47 57 59 67 79 80 73 68 65 59 55 53 53 56 49 38 30 22 19 22 25 24 21 18 18 17 13 14 19 22 23 23 22 26 30 38 60 73 75 71 63 55 48 43 42 39 35 30 26 26 28 35 44 44 42 45 51 58 59
117 112 107 100 95 88 83 81 78 78 78 72 67 64 58 52 50 53 52 46 43 40 37 36 33 34 44 60 64 66 75 77 71 69 66 60 56 52 50 49 43 34 26 20 18 23 30 31 28 23 20 17 13 12 15 20 24 23 20 25 35 47 64 71 73 69 59 50 44 41 38 33 31 28 26 25 23 20 22 31 36 39 44 50 57
117 116 113 105 98 90 82 79 78 80 82 76 70 66 60 51 48 49 48 42 40 38 34 32 31 34 43 58 63 63 66 68 67 67 64 60 57 54 51 48 42 36 29 27 30 34 36 38 33 26 21 17 15 14 14 17 24 26 26 33 44 50 59 62 62 61 56 49 42 38 36 34 31 27 24 28 31 22 16 12 14 26 38 41 44
123 123 117 107 98 93 90 86 83 85 86 75 66 63 58 49 42 41 39 37 38 36 32 30 30 34 43 53 57 56 57 56 56 59 61 59 57 56 55 48 43 39 36 38 43 42 41 41 36 27 20 18 17 17 17 17 22 27 32 43 51 50 52 54 55 55 52 48 42 36 35 33 29 24 22 24 25 16 12 7 357 1 21 35 37
130 125 117 109 103 102 102 98 92 88 82 72 62 55 45 36 33 32 30 34 38 35 31 30 30 34 41 48 49 48 48 46 43 46 52 53 53 55 54 48 43 40 40 44 47 45 42 40 36 28 24 25 25 24 26 26 24 26 31 40 46 46 45 46 46 47 47 45 38 32 32 30 22 19 21 22 15 360 358 5 358 353 2 24 35
132 128 124 121 120 119 116 109 101 90 80 73 63 53 40 31 33 31 27 31 35 35 31 28 30 34 38 44 44 42 40 37 32 32 36 39 43 47 50 47 42 39 36 37 38 37 37 37 36 33 30 31 31 31 33 35 35 33 33 36 39 40 41 39 37 38 42 42 37 31 30 26 20 21 21 16 11 4 4 7 5 2 6 15 21
138 142 142 143 141 137 129 119 111 98 86 77 66 55 42 33 37 39 34 30 30 31 27 23 25 29 33 41 43 41 37 31 24 23 21 17 20 29 40 44 40 36 32 27 23 21 24 28 32 33 31 29 29 30 33 35 37 40 41 40 39 39 39 37 33 31 33 35 38 43 41 27 21 22 18 13 13 12 8 8 11 11 15 18 7
149 159 164 167 163 150 142 139 130 114 97 87 75 63 45 34 35 35 31 25 20 21 19 15 16 20 24 33 40 41 38 32 26 24 19 12 4 4 20 36 37 34 30 25 20 16 14 17 23 28 30 28 27 27 28 29 32 36 41 43 43 43 42 40 33 26 25 28 34 45 51 42 32 24 14 12 13 10 7 5 8 10 13 18 13
153 167 183 196 191 174 162 158 149 140 126 107 83 64 44 27 19 13 11 9 5 5 5 3 3 5 10 18 28 36 38 32 28 25 20 15 8 358 358 15 28 27 22 19 18 19 19 17 16 21 26 27 26 25 24 25 27 30 34 38 42 45 46 44 38 29 25 26 28 42 56 54 45 33 23 21 15 8 5 358 352 357 360 7 16
156 168 188 205 206 200 192 178 163 173 201 212 212 38 11 352 353 354 353 353 352 350 349 347 346 348 351 356 7 22 32 31 26 23 19 14 10 4 355 350 5 13 10 8 12 17 21 20 15 15 20 23 26 25 22 23 28 31 33 37 39 42 45 46 46 46 52 54 52 60 66 56 45 38 33 32 23 11 2 350 342 345 347 355 25
157 157 160 164 180 200 203 199 197 212 240 245 246 269 291 300 321 332 337 343 343 342 341 339 337 336 335 336 340 354 15 24 22 18 15 11 7 5 1 348 343 351 355 1 11 16 15 14 13 12 14 19 25 25 21 22 28 32 34 35 37 40 44 47 51 54 62 70 71 73 68 49 41 38 33 34 33 24 10 356 345 341 338 350 40
152 141 130 121 123 159 189 203 213 226 272 264 255 263 268 272 301 319 326 334 335 336 339 338 337 337 334 328 323 326 344 7 16 14 10 6 2 359 358 354 345 345 354 2 12 17 15 14 14 10 10 18 28 29 22 20 24 29 30 29 29 33 38 45 54 59 62 68 66 61 53 39 34 30 24 29 33 28 21 21 18 7 360 8 32
149 142 130 124 127 142 169 191 189 142 83 22 302 274 258 258 287 311 327 332 332 332 333 333 331 331 334 331 322 317 320 334 356 8 6 360 356 351 350 351 349 350 0 7 12 19 21 19 15 7 8 21 33 29 19 17 22 25 25 22 21 22 22 26 39 51 54 59 60 53 41 30 24 18 19 27 26 20 21 26 23 17 16 17 12
157 153 142 136 138 146 156 155 131 115 100 69 42 360 295 282 293 305 313 318 327 330 330 331 327 321 325 330 323 318 316 313 325 351 1 357 352 349 349 351 352 354 360 9 18 26 26 21 15 6 8 25 35 25 16 17 22 23 21 17 15 16 14 10 15 25 27 31 41 42 35 32 30 27 29 32 22 14 19 25 20 17 19 18 5
165 162 159 156 158 162 158 152 145 132 126 359 334 317 305 308 312 310 308 312 319 322 322 325 325 317 314 318 317 316 317 312 308 322 349 357 350 347 351 355 356 360 6 15 26 31 28 20 12 4 9 27 31 20 15 23 29 26 20 13 12 14 11 7 14 19 14 14 20 25 30 38 42 43 43 38 25 16 19 21 17 17 23 21 15
158 162 169 175 185 193 192 190 193 193 262 284 296 302 303 309 310 307 309 311 313 316 315 315 317 315 309 307 307 306 310 312 304 301 323 349 350 348 353 357 1 9 15 19 26 30 28 19 11 9 18 28 21 16 22 33 35 29 21 13 13 13 8 12 24 24 18 19 20 19 25 35 44 51 50 42 31 23 22 20 13 16 29 29 23
149 154 157 161 181 196 200 198 195 238 293 298 301 305 312 318 316 311 311 310 310 314 315 313 312 312 310 308 306 302 302 306 302 293 299 329 346 349 354 3 17 27 21 16 22 29 29 24 21 24 29 24 14 17 34 41 34 29 24 18 14 12 15 27 31 25 20 21 20 20 26 33 42 48 48 42 34 25 23 28 29 25 35 42 33
149 148 143 132 134 168 195 212 235 277 294 304 306 306 311 315 315 313 310 309 310 311 312 312 310 308 308 310 309 306 301 300 299 291 286 304 333 344 354 15 40 39 20 11 18 31 37 37 35 32 30 27 24 31 46 42 34 30 24 17 16 20 32 33 24 17 20 25 26 30 34 36 40 41 39 37 34 28 29 45 56 49 50 56 47
156 144 135 157 185 195 237 254 268 279 291 303 305 305 309 310 310 309 304 302 303 303 305 308 306 305 308 310 309 308 304 299 298 291 279 280 309 334 345 14 42 36 16 5 13 32 47 45 39 33 28 26 29 43 49 40 36 33 24 21 28 32 30 23 16 17 26 32 34 37 39 40 40 39 35 31 28 26 31 52 71 73 72 72 63
183 174 173 224 233 252 268 274 280 283 290 298 299 301 306 309 310 311 307 300 296 295 299 303 303 304 307 310 312 313 308 300 298 291 273 264 279 313 331 351 21 29 12 359 3 24 34 28 34 34 27 22 22 39 51 39 39 37 28 28 35 32 22 18 18 23 32 35 37 40 43 43 42 39 37 31 24 20 24 44 73 84 81 78 76
226 260 280 275 276 282 281 283 286 288 291 294 296 300 304 306 310 313 314 310 303 297 298 301 303 304 306 309 315 319 316 304 297 293 269 254 262 282 297 323 338 347 360 352 349 2 2 355 12 22 22 20 18 26 65 51 44 42 34 30 31 28 21 20 21 26 32 35 37 41 44 44 44 42 37 30 22 15 16 28 55 84 85 78 76
232 282 293 292 290 287 285 285 286 288 293 294 295 300 303 305 308 310 311 313 311 307 304 303 304 306 307 310 315 319 320 311 300 295 269 243 246 260 268 300 319 294 272 311 312 287 300 326 350 8 19 23 19 20 84 72 51 43 36 30 28 26 22 21 21 25 30 34 38 42 44 43 42 38 31 25 22 20 19 20 29 60 77 71 67
236 297 313 308 293 276 277 285 288 291 297 299 298 297 297 299 304 307 308 309 310 310 310 308 307 309 310 314 317 318 319 316 308 300 277 248 245 251 252 270 304 286 251 251 269 274 290 310 329 351 7 17 20 20 56 60 41 36 34 29 26 26 23 19 19 23 31 38 43 44 41 37 35 31 27 26 28 27 26 25 30 43 54 57 54
234 285 314 314 298 267 275 291 297 300 305 308 307 303 298 299 304 306 306 307 307 307 308 309 311 313 314 316 317 316 317 320 318 309 287 260 251 249 246 257 285 282 252 242 253 269 291 306 316 328 344 3 19 24 27 40 33 22 23 25 25 26 24 21 25 34 42 44 42 37 31 29 32 33 34 37 38 35 35 42 49 50 52 56 54
218 255 292 300 299 281 286 302 310 310 311 314 316 315 311 309 308 307 307 308 309 310 310 311 314 317 315 314 313 311 314 320 323 315 299 274 256 251 251 256 269 272 260 253 254 261 273 290 304 317 330 347 8 16 14 24 26 4 357 7 18 22 23 26 34 47 52 47 43 41 39 39 41 43 45 48 49 47 45 49 53 54 56 59 57
220 230 244 258 273 277 288 308 314 312 311 313 314 316 318 318 314 311 313 315 314 313 311 311 315 319 317 315 314 312 314 321 324 317 307 283 255 251 252 253 256 260 264 267 269 268 266 272 283 299 316 326 344 6 8 15 18 359 343 342 4 16 23 30 41 53 57 54 52 52 51 50 49 50 51 51 51 50 49 48 48 50 54 55 52
232 236 239 248 260 268 283 301 307 308 310 312 313 317 323 326 323 320 322 325 321 313 308 310 319 325 322 320 321 321 320 326 329 324 316 291 256 245 244 247 251 254 258 267 276 278 275 273 272 274 288 304 310 324 3 19 20 6 346 324 327 4 23 34 44 52 58 61 59 56 55 53 50 50 49 48 49 50 47 45 45 47 50 50 44
239 244 244 250 261 271 284 301 310 313 315 317 319 322 325 328 327 328 332 334 329 320 316 320 331 337 335 331 329 328 328 331 332 330 323 302 272 249 240 244 249 250 252 260 270 275 276 273 266 260 264 281 292 284 273 343 2 356 335 292 278 314 23 38 46 52 56 57 54 51 52 52 48 45 42 40 43 47 44 42 43 45 46 45 38
243 249 249 254 268 279 286 297 307 312 315 319 322 324 325 325 325 328 333 337 334 327 326 332 337 340 341 341 338 335 333 332 332 331 324 310 291 265 247 243 244 244 246 254 262 267 272 271 263 255 254 263 280 280 261 266 313 324 302 270 259 247 360 42 49 54 51 47 42 38 41 47 46 40 36 34 37 41 41 41 43 46 45 39 30
247 258 260 267 279 287 291 297 304 308 311 315 319 320 322 323 323 322 322 325 326 323 322 326 329 330 333 336 336 333 328 324 324 323 316 309 300 281 259 246 242 240 241 247 255 258 263 267 264 257 252 252 262 278 272 260 275 299 295 270 248 229 207 73 55 55 34 8 17 18 18 30 44 39 32 34 42 46 45 44 45 46 41 32 23
252 261 269 275 282 288 293 297 302 306 309 313 316 317 318 320 318 315 312 312 311 310 309 311 314 315 314 316 321 325 324 319 316 314 310 303 297 288 272 255 246 242 240 243 248 250 253 262 265 262 257 252 252 267 276 267 262 283 297 274 243 223 206 187 50 13 327 303 314 348 356 6 46 42 34 39 48 48 47 47 42 34 29 25 21
256 263 270 276 281 286 290 294 300 305 308 311 312 312 312 312 310 307 305 302 301 301 301 303 307 309 306 303 303 307 312 313 311 310 307 298 291 289 282 268 258 252 246 244 244 244 246 255 264 266 262 255 249 256 272 274 264 272 292 281 246 222 208 212 247 311 327 312 307 326 343 2 72 49 39 47 47 38 40 40 28 18 18 21 16
256 263 269 276 281 285 290 295 301 306 309 310 307 305 305 304 303 302 300 299 298 299 300 304 308 308 307 307 302 294 294 299 303 303 300 291 285 286 286 279 271 262 254 249 245 242 241 247 261 268 266 259 251 248 260 275 270 269 286 286 252 221 213 224 241 275 312 312 310 319 324 221 118 55 47 50 27 14 21 26 18 15 19 18 11
260 265 270 276 281 286 292 298 302 307 311 308 302 298 298 298 300 301 300 300 300 300 301 305 307 305 304 309 309 296 285 282 285 290 291 286 280 279 280 279 274 267 261 254 248 245 243 245 256 266 266 260 252 242 245 265 271 270 282 282 248 216 213 225 232 254 294 302 303 308 291 214 180 55 47 31 9 13 37 37 23 21 20 13 9
269 272 274 276 280 285 291 295 300 305 307 303 297 295 295 296 298 301 301 301 301 302 303 306 307 305 303 306 308 301 287 277 275 278 282 280 275 271 270 272 273 272 270 263 253 249 248 247 252 260 264 260 250 236 235 253 264 268 277 270 236 215 216 225 230 249 278 289 294 293 260 223 214 227 21 5 9 36 72 53 25 17 13 7 4
273 276 276 278 281 286 290 293 296 298 298 296 294 294 295 297 299 300 301 301 303 305 308 310 309 309 308 306 303 300 292 284 279 274 271 271 270 267 265 265 267 271 274 273 266 259 256 254 253 257 264 267 258 238 231 243 257 265 271 260 237 226 227 227 229 244 262 269 286 289 259 233 226 228 265 344 8 42 71 51 20 9 6 2 3
269 273 277 281 283 285 287 289 290 292 292 290 288 288 292 297 300 299 301 305 308 311 313 310 307 306 307 306 303 298 293 291 286 278 269 266 266 266 264 263 263 264 268 272 274 272 270 266 262 260 264 272 266 242 228 235 250 259 263 256 244 237 235 230 226 228 228 234 277 297 274 248 236 234 246 290 342 15 46 38 18 4 3 4 7
269 273 278 283 285 284 282 281 284 290 290 286 283 284 290 296 296 296 300 307 311 311 309 303 299 300 304 306 305 298 290 288 286 281 273 267 263 262 263 262 261 261 262 266 271 274 274 273 271 268 268 272 270 248 230 232 244 253 256 255 248 243 239 233 225 218 208 202 230 307 295 269 248 239 242 261 278 271 351 15 2 353 358 6 14
271 273 278 284 286 285 281 278 281 287 287 284 283 286 291 293 289 286 292 301 305 305 302 296 295 305 314 315 312 304 294 287 283 281 279 274 268 264 262 260 260 261 263 264 268 272 274 272 271 270 269 271 273 260 240 235 243 252 253 254 252 248 244 238 228 219 215 217 228 266 294 285 263 247 242 251 263 262 282 335 344 339 346 360 16
270 272 276 280 281 279 276 275 279 283 283 283 284 287 291 290 282 277 283 294 297 295 292 289 292 304 313 315 316 315 309 300 290 284 283 281 278 275 271 267 263 260 261 265 268 272 274 272 268 268 267 268 271 265 248 237 241 251 254 255 254 250 246 244 238 231 229 237 247 254 270 285 274 257 248 249 256 259 264 286 317 328 332 348 11
270 271 273 275 274 271 268 270 276 281 283 284 285 286 288 287 278 273 279 288 287 283 284 287 288 292 299 306 314 320 321 317 307 295 286 283 283 285 284 282 276 267 263 265 268 271 274 272 268 267 267 266 268 265 250 236 237 247 254 257 257 255 254 258 255 246 239 243 253 256 266 285 284 268 255 250 253 256 257 265 291 318 325 342 5
272 272 274 276 275 270 267 269 275 279 282 283 283 284 286 284 276 271 276 280 278 276 281 283 283 285 291 299 308 316 322 324 321 312 297 286 281 282 288 295 294 281 269 265 266 267 270 269 267 268 270 271 271 269 254 237 234 241 250 256 260 261 264 270 265 251 243 247 256 260 264 277 289 281 260 247 245 250 254 257 269 297 312 332 357
270 272 276 277 273 268 268 271 274 277 280 281 280 279 280 279 274 271 273 273 272 274 280 282 281 281 285 293 303 311 315 319 323 323 313 296 282 276 281 294 300 290 278 271 267 265 264 263 263 266 269 271 274 272 258 238 230 236 244 252 258 260 260 258 253 245 243 249 257 262 263 269 281 286 268 246 239 242 248 250 257 277 297 323 348
269 275 279 277 271 268 267 269 272 275 276 277 277 276 274 273 273 274 274 273 273 277 282 283 280 278 279 284 293 299 302 305 312 316 313 303 289 278 276 283 289 286 281 278 275 270 265 261 261 262 264 267 272 274 263 239 228 231 238 244 251 256 256 251 244 240 243 249 255 260 263 267 275 284 278 252 237 237 242 245 251 264 282 314 335
273 280 283 281 276 271 268 268 271 273 273 273 275 274 269 267 271 277 279 277 276 278 281 281 277 276 276 276 280 287 291 294 299 303 304 302 295 286 278 278 280 281 280 280 279 275 268 262 259 259 260 266 273 276 265 240 227 228 232 235 239 245 248 245 239 237 240 248 255 259 264 268 273 283 283 260 235 231 235 240 246 255 266 297 318
276 282 284 282 279 278 276 273 273 272 270 270 273 273 267 263 268 276 280 280 278 278 279 278 276 276 277 276 277 280 283 284 287 291 292 294 295 292 283 275 271 273 276 278 276 271 264 259 257 256 256 260 266 268 259 239 227 226 227 228 229 231 233 232 231 233 238 247 255 261 267 272 276 282 283 264 235 226 230 235 241 246 253 278 299
276 283 284 281 280 281 279 273 269 268 268 268 271 271 267 263 264 270 276 280 280 280 281 282 280 279 279 279 280 280 280 279 280 282 284 287 292 296 291 278 267 266 271 274 270 265 259 256 254 252 251 251 253 256 252 240 230 228 228 225 222 223 223 224 225 229 236 245 252 258 268 276 279 281 279 266 240 226 225 228 234 239 244 265 276